2001 QF6

Japanese version
Home page
Updated on November 25, 2005

---------------------------------------------------------------------

* Profile

Designation 2001 QF6
Discovery Date August 16, 2001
Magnitude 18.8 mag
Discoverer Lincoln Laboratory Near-Earth Asteroid Research project

* Orbital Elements

Epoch 2002 Nov. 22.0 TT = JDT 2452600.5                 MPC
M  15.25944              (2000.0)            P               Q
n   0.05178694     Peri.  239.30230     +0.87184141     -0.42682641
a   7.1283531      Node   144.30150     +0.45136968     +0.89059357
e   0.6873840      Incl.   24.31141     -0.19015247     +0.15704238
P  19.03           H   15.4           G   0.15           U   1

* Finding Charts

* Magnitudes Graph

        H = 14.5  G = 0.15

---------------------------------------------------------------------

The orbital elements are published on M.P.E.C. 2002-Y23.
The charts are made with StellaNavigator Ver.2.0 for Windows (AstroArts / ASCII).
The magnitudes graphs are made with Comet for Windows.

---------------------------------------------------------------------

Copyright(C) Seiichi Yoshida (comet@aerith.net). All rights reserved.